Terminal Aerodrome Forecast
Issued by NWS

Home | Current Version | Previous Version | Text Only | Print | Product List | Glossary On
Versions: 1 2 3 4 5 6 7 8 9 10 11 12 13 14
000
FTUS42 TJSJ 291100
TAFKPK
TAF
TKPK 291120Z 2912/3012 08009KT P6SM VCSH SCT019 SCT035
     FM291400 09014KT P6SM FEW024
     FM292300 07009KT P6SM SCT020
      AMD NOT SKED 3002/3011=

USA.gov is the U.S. government's official web portal to all federal, state and local government web resources and services.